Regional Weather Roundup
Issued by NWS

Home | Current Version | Previous Version | Graphics & Text | Print | Product List | Glossary On
Versions: 1 2 3 4 5 6 7 8 9 10 11 12 13 14 15 16 17 18 19 20 21 22 23 24 25 26 27 28 29 30 31 32 33 34 35 36 37 38 39 40 41 42 43 44 45 46 47 48 49 50
000
ASUS43 KLMK 232202
RWRKY
KENTUCKY REGIONAL WEATHER ROUNDUP
NATIONAL WEATHER SERVICE LOUISVILLE KY
500 PM EST THU FEB 23 2017

NOTE "FAIR" INDICATES FEW OR NO CLOUDS BELOW 12,000 FEET
WITH NO SIGNIFICANT WEATHER AND/OR OBSTRUCTIONS TO VISIBILITY.

KYZ001>023-026-027-061>063-070>075-232300-
WESTERN AND SOUTH CENTRAL KENTUCKY

CITY           SKY/WX    TMP DP  RH WIND       PRES   REMARKS
PADUCAH        MOSUNNY   74  53  48 S9        29.66F
HENDERSON      PTSUNNY   73  54  49 S17G23    29.68S
OWENSBORO      PTSUNNY   73  57  57 S14       29.70F
HOPKINSVILLE   MOSUNNY   72  55  53 S13       29.71F
BOWLING GREEN  PTSUNNY   74  55  51 S12       29.74F
GLASGOW        NOT AVBL
$$

KYZ024-025-028>034-038-045-046-053-232300-
NORTH CENTRAL KENTUCKY

CITY           SKY/WX    TMP DP  RH WIND       PRES   REMARKS
LOUISVILLE/SDF CLOUDY    70  54  56 S10       29.74S
LOUISVILLE/LOU CLOUDY    70  55  59 S8        29.75S
FORT KNOX      CLOUDY    69  56  63 S8        29.73F
$$

KYZ035>037-039>044-047>052-055>060-089>105-232300-
NORTHEAST KENTUCKY

CITY           SKY/WX    TMP DP  RH WIND       PRES   REMARKS
LEXINGTON      CLOUDY    69  56  62 SE6       29.79S
COVINGTON      CLOUDY    68  55  63 S8        29.76S
FRANKFORT      CLOUDY    69  55  60 S9        29.76S
$$

KYZ054-064>069-076>088-106>120-232300-
SOUTHEAST KENTUCKY

CITY           SKY/WX    TMP DP  RH WIND       PRES   REMARKS
JACKSON        PTSUNNY   70  54  56 CALM      29.82F
LONDON         CLOUDY    70  52  52 SE5       29.80S
SOMERSET       MOSUNNY   70  52  52 CALM      29.79F
MIDDLESBORO    MOSUNNY   71  52  51 CALM      29.82S
MONTICELLO     MOCLDY    71  54  54 E7        29.79F
$$





USA.gov is the U.S. government's official web portal to all federal, state and local government web resources and services.